EAA406 SBSN-SBBR

Flight info

Callsign EAA406
Flight time N/A
Altitude 35000
Route RIDAL DCT GELVU UP535 MOMSO UZ24 OPNAX
Aircraft B738/M-SDE2E3FGHIRWXY/LB1

Departure

Time 2026-04-30 13:37
Airport Santarém - Maestro Wilson Fonseca International Airport (SBSN)

Arrival

Time N/A
Airport Presidente Juscelino Kubitschek International Airport (SBBR)
Time Latitude Longitude Altitude Speed Heading
2026-04-30 13:18 -2.42284 -54.78415 205 ft 0 kts 359°
2026-04-30 13:32 -2.42318 -54.78415 208 ft 3 kts 359°
2026-04-30 13:33 -2.42316 -54.78415 204 ft 0 kts 359°
2026-04-30 13:33 -2.42315 -54.78415 204 ft 2 kts 359°
2026-04-30 13:34 -2.42313 -54.78415 204 ft 0 kts 359°
2026-04-30 13:34 -2.42230 -54.78287 214 ft 29 kts 25°
2026-04-30 13:35 -2.42190 -54.78268 212 ft 0 kts 25°
2026-04-30 13:36 -2.42186 -54.78266 214 ft 5 kts 25°
2026-04-30 13:36 -2.42104 -54.78236 207 ft 20 kts
2026-04-30 13:36 -2.42109 -54.78449 206 ft 67 kts 260°
2026-04-30 13:37 -2.42222 -54.79174 209 ft 145 kts 261°
2026-04-30 13:37 -2.42683 -54.81775 924 ft 223 kts 261°
2026-04-30 13:38 -2.43031 -54.84907 2605 ft 231 kts 266°
2026-04-30 13:38 -2.43069 -54.86613 2680 ft 269 kts 270°
2026-04-30 13:38 -2.43691 -54.91152 2057 ft 357 kts 238°
2026-04-30 13:39 -2.47447 -54.93590 4819 ft 311 kts 183°
2026-04-30 13:39 -2.51556 -54.93736 7146 ft 288 kts 179°
2026-04-30 13:40 -2.53574 -54.93878 7899 ft 293 kts 184°
2026-04-30 13:40 -2.55599 -54.94246 8605 ft 299 kts 191°
2026-04-30 13:40 -2.57604 -54.94843 9334 ft 304 kts 196°
2026-04-30 13:40 -2.59593 -54.95624 9840 ft 310 kts 200°
2026-04-30 13:41 -2.61547 -54.96537 10220 ft 310 kts 203°
2026-04-30 13:41 -2.63474 -54.97536 10790 ft 315 kts 205°
2026-04-30 13:41 -2.65405 -54.98598 11469 ft 318 kts 206°
2026-04-30 13:41 -2.67332 -54.99698 12131 ft 321 kts 207°
2026-04-30 13:42 -2.69276 -55.00830 12770 ft 325 kts 207°
2026-04-30 13:42 -2.71237 -55.01985 13408 ft 329 kts 207°
2026-04-30 13:42 -2.75209 -55.04346 14571 ft 335 kts 207°
2026-04-30 13:43 -2.77222 -55.05546 15149 ft 338 kts 208°
2026-04-30 13:43 -2.79255 -55.06760 15708 ft 342 kts 208°
2026-04-30 13:43 -2.81306 -55.07984 16256 ft 346 kts 208°
2026-04-30 13:43 -2.83381 -55.09223 16806 ft 349 kts 208°
2026-04-30 13:44 -2.85473 -55.10472 17339 ft 352 kts 208°
2026-04-30 13:44 -2.87589 -55.11736 17902 ft 356 kts 208°
2026-04-30 13:44 -2.89726 -55.13012 18404 ft 359 kts 208°
2026-04-30 13:44 -2.91878 -55.14298 18860 ft 362 kts 208°
2026-04-30 13:45 -2.96278 -55.16818 19775 ft 365 kts 197°
2026-04-30 13:45 -2.98738 -55.17297 20196 ft 360 kts 175°
2026-04-30 13:45 -3.01189 -55.16913 20659 ft 356 kts 156°
2026-04-30 13:46 -3.03425 -55.15877 21110 ft 355 kts 149°
2026-04-30 13:46 -3.05615 -55.14699 21537 ft 358 kts 148°
2026-04-30 13:46 -3.07798 -55.13484 21972 ft 361 kts 148°
2026-04-30 13:46 -3.10002 -55.12249 22426 ft 364 kts 148°
2026-04-30 13:47 -3.12225 -55.11010 22876 ft 367 kts 148°
2026-04-30 13:47 -3.14464 -55.09771 23283 ft 370 kts 148°
2026-04-30 13:47 -3.16731 -55.08524 23665 ft 373 kts 148°
2026-04-30 13:47 -3.19017 -55.07273 24011 ft 376 kts 148°
2026-04-30 13:48 -3.21289 -55.06033 24364 ft 378 kts 148°
2026-04-30 13:48 -3.23638 -55.04754 24718 ft 380 kts 149°
2026-04-30 13:48 -3.25969 -55.03486 25050 ft 383 kts 149°
2026-04-30 13:48 -3.28318 -55.02209 25386 ft 386 kts 149°
2026-04-30 13:49 -3.30654 -55.00939 25716 ft 388 kts 149°
2026-04-30 13:49 -3.33067 -54.99627 26066 ft 390 kts 149°
2026-04-30 13:49 -3.35426 -54.98345 26413 ft 392 kts 149°
2026-04-30 13:49 -3.37825 -54.97042 26828 ft 392 kts 149°
2026-04-30 13:50 -3.40213 -54.95744 27278 ft 390 kts 149°
2026-04-30 13:50 -3.44989 -54.93149 28091 ft 390 kts 149°
2026-04-30 13:50 -3.47371 -54.91854 28497 ft 390 kts 149°
2026-04-30 13:51 -3.49753 -54.90559 28912 ft 389 kts 149°
2026-04-30 13:51 -3.52135 -54.89263 29307 ft 389 kts 149°
2026-04-30 13:51 -3.54513 -54.87970 29709 ft 389 kts 149°
2026-04-30 13:51 -3.56895 -54.86675 30079 ft 389 kts 149°
2026-04-30 13:52 -3.59274 -54.85380 30411 ft 389 kts 149°
2026-04-30 13:52 -3.61647 -54.84090 30756 ft 388 kts 150°
2026-04-30 13:52 -3.64018 -54.82801 31070 ft 388 kts 149°
2026-04-30 13:52 -3.66392 -54.81509 31359 ft 388 kts 150°
2026-04-30 13:53 -3.68763 -54.80219 31668 ft 388 kts 150°
2026-04-30 13:53 -3.71134 -54.78929 31973 ft 387 kts 150°
2026-04-30 13:53 -3.73500 -54.77641 32285 ft 387 kts 150°
2026-04-30 13:53 -3.75878 -54.76347 32414 ft 392 kts 150°
2026-04-30 13:54 -3.80747 -54.73695 32557 ft 404 kts 150°
2026-04-30 13:54 -3.85757 -54.70968 32706 ft 416 kts 150°
2026-04-30 13:55 -3.88316 -54.69577 32828 ft 420 kts 150°
2026-04-30 13:55 -3.90894 -54.68175 32976 ft 423 kts 150°
2026-04-30 13:55 -3.93487 -54.66764 33161 ft 425 kts 150°
2026-04-30 13:55 -3.96081 -54.65351 33498 ft 423 kts 150°
2026-04-30 13:56 -3.98665 -54.63945 33798 ft 423 kts 150°
2026-04-30 13:56 -4.01247 -54.62538 34027 ft 423 kts 150°
2026-04-30 13:56 -4.03835 -54.61128 34237 ft 424 kts 150°
2026-04-30 13:56 -4.06421 -54.59719 34499 ft 422 kts 150°
2026-04-30 13:57 -4.08995 -54.58318 34744 ft 421 kts 150°
2026-04-30 13:57 -4.11581 -54.56910 34835 ft 425 kts 150°
2026-04-30 13:57 -4.14185 -54.55491 34941 ft 427 kts 150°
2026-04-30 13:57 -4.16812 -54.54060 34972 ft 432 kts 150°
2026-04-30 13:58 -4.24879 -54.49665 34984 ft 448 kts 150°
2026-04-30 13:59 -4.30418 -54.46647 34985 ft 458 kts 150°
2026-04-30 13:59 -4.36044 -54.43582 34985 ft 468 kts 150°
2026-04-30 14:00 -4.41813 -54.40437 34983 ft 476 kts 150°
2026-04-30 14:00 -4.50637 -54.35624 34974 ft 485 kts 150°
2026-04-30 14:01 -4.56581 -54.32381 34969 ft 488 kts 150°
2026-04-30 14:01 -4.62548 -54.29128 34968 ft 489 kts 150°
2026-04-30 14:02 -4.68528 -54.25867 34967 ft 489 kts 150°
2026-04-30 14:02 -4.74499 -54.22609 34965 ft 488 kts 150°
2026-04-30 14:03 -4.80455 -54.19359 34964 ft 487 kts 150°
2026-04-30 14:03 -4.86400 -54.16114 34964 ft 485 kts 150°
2026-04-30 14:04 -4.92318 -54.12883 34966 ft 484 kts 150°
2026-04-30 14:04 -4.98225 -54.09657 34969 ft 483 kts 150°
2026-04-30 14:05 -5.04113 -54.06439 34974 ft 482 kts 150°
2026-04-30 14:05 -5.10000 -54.03223 34966 ft 481 kts 150°
2026-04-30 14:06 -5.18807 -53.98411 34969 ft 480 kts 150°
2026-04-30 14:07 -5.27566 -53.93621 34966 ft 480 kts 150°
2026-04-30 14:08 -5.36356 -53.88816 34969 ft 480 kts 150°
2026-04-30 14:08 -5.45144 -53.84007 34964 ft 480 kts 150°
2026-04-30 14:09 -5.51001 -53.80803 34967 ft 479 kts 150°
2026-04-30 14:10 -5.59787 -53.75994 34967 ft 479 kts 150°
2026-04-30 14:10 -5.65644 -53.72787 34968 ft 479 kts 150°
2026-04-30 14:11 -5.71497 -53.69581 34969 ft 479 kts 150°
2026-04-30 14:11 -5.77356 -53.66373 34969 ft 479 kts 150°
2026-04-30 14:12 -5.83211 -53.63166 34971 ft 480 kts 150°
2026-04-30 14:12 -5.89073 -53.59953 34960 ft 480 kts 150°
2026-04-30 14:13 -5.94934 -53.56740 34967 ft 480 kts 150°
2026-04-30 14:13 -6.00793 -53.53528 34960 ft 480 kts 150°
2026-04-30 14:14 -6.06648 -53.50317 34957 ft 479 kts 150°
2026-04-30 14:14 -6.12501 -53.47106 34960 ft 479 kts 150°
2026-04-30 14:15 -6.18315 -53.43916 34960 ft 479 kts 150°
2026-04-30 14:15 -6.24165 -53.40706 34970 ft 479 kts 150°
2026-04-30 14:16 -6.30015 -53.37494 34952 ft 479 kts 150°
2026-04-30 14:16 -6.35867 -53.34280 34962 ft 479 kts 150°
2026-04-30 14:17 -6.40761 -53.31592 34961 ft 479 kts 150°
2026-04-30 14:17 -6.47551 -53.27863 34958 ft 478 kts 150°
2026-04-30 14:18 -6.52440 -53.25177 34958 ft 478 kts 150°
2026-04-30 14:18 -6.61185 -53.20368 34955 ft 477 kts 150°
2026-04-30 14:19 -6.69882 -53.15586 34958 ft 476 kts 150°
2026-04-30 14:20 -6.75688 -53.12392 34960 ft 476 kts 150°
2026-04-30 14:20 -6.84434 -53.07579 34956 ft 475 kts 150°
2026-04-30 14:21 -6.90228 -53.04389 34961 ft 475 kts 150°
2026-04-30 14:22 -6.98869 -52.99631 34956 ft 474 kts 149°
2026-04-30 14:22 -7.07543 -52.94851 34958 ft 474 kts 149°
2026-04-30 14:23 -7.19108 -52.88476 34960 ft 473 kts 150°
2026-04-30 14:24 -7.27711 -52.83734 34946 ft 462 kts 150°
2026-04-30 14:25 -7.39032 -52.77486 34960 ft 467 kts 150°
2026-04-30 14:26 -7.47615 -52.72747 34961 ft 471 kts 150°
2026-04-30 14:27 -7.56256 -52.67975 34952 ft 473 kts 150°
2026-04-30 14:27 -7.62029 -52.64786 34956 ft 473 kts 150°
2026-04-30 14:28 -7.70651 -52.60021 34948 ft 473 kts 149°
2026-04-30 14:28 -7.76420 -52.56831 34953 ft 472 kts 149°
2026-04-30 14:29 -7.87939 -52.50458 34951 ft 472 kts 149°
2026-04-30 14:31 -8.02308 -52.42504 34955 ft 471 kts 149°
2026-04-30 14:31 -8.10920 -52.37734 34952 ft 471 kts 149°
2026-04-30 14:32 -8.19521 -52.32966 34948 ft 470 kts 149°
2026-04-30 14:33 -8.25256 -52.29786 34960 ft 470 kts 149°
2026-04-30 14:33 -8.33850 -52.25019 34959 ft 470 kts 149°
2026-04-30 14:34 -8.39583 -52.21838 34965 ft 470 kts 149°
2026-04-30 14:34 -8.45315 -52.18656 34961 ft 470 kts 149°
2026-04-30 14:35 -8.53911 -52.13882 34968 ft 470 kts 149°
2026-04-30 14:36 -8.59641 -52.10698 34969 ft 471 kts 149°
2026-04-30 14:36 -8.65347 -52.07528 34960 ft 471 kts 149°
2026-04-30 14:37 -8.71125 -52.04316 34971 ft 470 kts 149°
2026-04-30 14:37 -8.76817 -52.01149 34961 ft 470 kts 149°
2026-04-30 14:38 -8.82541 -51.97964 34952 ft 469 kts 149°
2026-04-30 14:38 -8.88263 -51.94778 34959 ft 469 kts 149°
2026-04-30 14:39 -8.93972 -51.91601 34959 ft 468 kts 149°
2026-04-30 14:39 -8.99667 -51.88429 34962 ft 468 kts 149°
2026-04-30 14:40 -9.08221 -51.83663 34960 ft 468 kts 149°
2026-04-30 14:40 -9.13916 -51.80487 34963 ft 467 kts 149°
2026-04-30 14:41 -9.19610 -51.77311 34961 ft 467 kts 149°
2026-04-30 14:41 -9.25303 -51.74135 34965 ft 467 kts 149°
2026-04-30 14:42 -9.30993 -51.70960 34967 ft 467 kts 149°
2026-04-30 14:42 -9.36684 -51.67783 34963 ft 467 kts 149°
2026-04-30 14:43 -9.42371 -51.64606 34959 ft 467 kts 149°
2026-04-30 14:43 -9.48055 -51.61430 34960 ft 467 kts 149°
2026-04-30 14:44 -9.53744 -51.58250 34963 ft 467 kts 149°
2026-04-30 14:44 -9.59428 -51.55071 34961 ft 467 kts 149°
2026-04-30 14:45 -9.65115 -51.51890 34958 ft 467 kts 149°
2026-04-30 14:45 -9.70760 -51.48731 34960 ft 467 kts 149°
2026-04-30 14:46 -9.76438 -51.45553 34971 ft 466 kts 149°
2026-04-30 14:46 -9.82120 -51.42371 34963 ft 467 kts 149°
2026-04-30 14:47 -9.87800 -51.39190 34963 ft 467 kts 149°
2026-04-30 14:47 -9.93485 -51.36003 34953 ft 467 kts 149°
2026-04-30 14:48 -9.99167 -51.32816 34950 ft 466 kts 149°
2026-04-30 14:48 -10.04842 -51.29633 34956 ft 466 kts 149°
2026-04-30 14:49 -10.10521 -51.26446 34955 ft 466 kts 149°
2026-04-30 14:49 -10.16199 -51.23260 34946 ft 467 kts 149°
2026-04-30 14:50 -10.24719 -51.18474 34943 ft 467 kts 149°
2026-04-30 14:51 -10.33241 -51.13684 34953 ft 467 kts 149°
2026-04-30 14:52 -10.41769 -51.08889 34945 ft 467 kts 149°
2026-04-30 14:52 -10.50313 -51.04080 34949 ft 468 kts 149°
2026-04-30 14:53 -10.58857 -50.99269 34949 ft 468 kts 149°
2026-04-30 14:54 -10.70227 -50.92862 34939 ft 469 kts 149°
2026-04-30 14:55 -10.78775 -50.88042 34947 ft 468 kts 149°
2026-04-30 14:56 -10.90167 -50.81612 34944 ft 468 kts 149°
2026-04-30 14:57 -10.98712 -50.76786 34951 ft 468 kts 149°
2026-04-30 14:58 -11.10109 -50.70344 34942 ft 468 kts 149°
2026-04-30 14:58 -11.18651 -50.65511 34942 ft 468 kts 149°
2026-04-30 15:00 -11.32870 -50.57461 34938 ft 467 kts 149°
2026-04-30 15:01 -11.44220 -50.51028 34946 ft 467 kts 149°
2026-04-30 15:01 -11.52729 -50.46201 34943 ft 467 kts 149°
2026-04-30 15:02 -11.58398 -50.42984 34940 ft 466 kts 149°
2026-04-30 15:03 -11.72570 -50.34933 34940 ft 466 kts 149°
2026-04-30 15:04 -11.86687 -50.26905 34947 ft 466 kts 149°
2026-04-30 15:06 -11.99923 -50.19369 34945 ft 466 kts 149°
2026-04-30 15:07 -12.11215 -50.12932 34947 ft 466 kts 150°
2026-04-30 15:08 -12.22540 -50.06471 34946 ft 466 kts 149°
2026-04-30 15:09 -12.36680 -49.98395 34943 ft 466 kts 149°
2026-04-30 15:10 -12.47986 -49.91930 34947 ft 465 kts 149°
2026-04-30 15:11 -12.64936 -49.82225 34950 ft 465 kts 149°
2026-04-30 15:13 -12.79044 -49.74136 34944 ft 465 kts 150°
2026-04-30 15:14 -12.98766 -49.62811 34951 ft 465 kts 150°
2026-04-30 15:17 -13.24110 -49.48227 34948 ft 465 kts 149°
2026-04-30 15:19 -13.46668 -49.35216 34954 ft 465 kts 149°